Location: Rounton
(54.4000°N, 1.3500°W)
Time: 21:36:06
(UTC+00:00)

Vanguard 3 - Pass Details

Date: 06 December 2021
Orbit: 508 x 3260 km, 33.3° (Epoch: 17 January)

Event Time Altitude Azimuth Distance (km) Brightness Sun altitude
Rises 01:45:48 0° 201° (SSW) 6,730 - -52.1°
Reaches altitude 10° 01:51:39 10° 189° (S) 5,986 - -51.5°
Exits shadow 02:02:34 22° 154° (SSE) 5,197 11.0 -50.3°
Maximum altitude 02:04:32 23° 147° (SSE) 5,167 11.0 -50.1°
Drops below altitude 10° 02:17:03 10° 105° (ESE) 5,855 11.8 -48.7°
Sets 02:22:35 0° 93° (E) 6,560 12.3 -48.0°
